Dewpoint
47 48 48 49 49 49 49 48 49 47 45 44 44 44 44 44 45 45 44 44 44 44 43 43 43 44 44 42 42 43 42 41 41 43 47 51 53 55 56 56 57 60 61
46 48 48 48 48 48 47 47 48 45 45 45 45 45 45 46 46 45 44 45 44 44 44 43 43 44 43 42 42 41 41 41 41 41 43 45 49 52 54 56 57 58 61
45 46 47 47 47 46 46 46 47 45 44 45 45 45 46 46 45 45 45 45 45 45 45 44 44 44 44 44 43 42 42 42 42 43 43 43 46 47 47 51 57 59 60
43 43 44 45 47 45 46 45 45 46 45 46 46 46 46 46 46 46 45 44 44 44 44 44 44 44 44 44 43 43 43 42 43 43 42 43 44 47 48 49 50 56 58
41 41 42 44 44 44 45 45 44 44 45 46 45 45 45 46 45 44 45 45 45 44 44 44 44 44 45 45 44 44 43 42 42 41 40 38 38 39 39 44 49 51 57
41 41 40 40 41 42 43 43 43 43 44 44 44 44 45 45 45 45 45 45 45 45 45 45 45 45 45 46 46 46 46 43 42 40 39 38 39 40 40 41 42 48 52
37 38 38 38 39 40 42 42 42 43 44 44 44 45 45 45 45 45 46 45 45 44 44 45 45 45 45 45 45 45 45 45 44 43 41 41 41 41 42 43 44 48 49
36 36 37 37 38 40 41 42 42 43 44 44 45 45 46 46 46 46 42 42 42 43 44 44 45 45 45 46 45 44 44 44 44 44 43 42 42 42 43 44 45 47 50
34 34 35 36 37 38 40 41 41 43 43 44 45 45 45 45 46 41 41 40 40 41 42 43 43 44 44 44 45 45 44 44 44 44 43 43 44 45 45 46 46 48 50
33 33 34 36 37 38 40 40 41 42 43 44 45 44 44 43 40 40 39 38 38 40 40 42 43 43 43 43 43 44 44 44 44 44 44 44 44 43 44 44 46 47 48
33 33 33 35 34 37 38 39 40 41 42 41 40 41 42 39 38 38 38 37 37 38 40 42 44 45 46 44 43 43 45 46 45 45 45 45 46 46 47 47 46 47 47
33 32 32 32 33 35 37 37 36 36 36 37 37 36 36 36 37 36 36 37 37 38 40 44 48 48 47 48 45 43 43 44 46 46 46 45 46 46 47 47 49 50 51
34 32 31 32 33 34 35 34 33 34 34 34 34 32 32 35 35 35 36 36 37 40 43 45 47 46 49 49 47 45 42 43 44 44 44 45 46 47 48 48 50 51 52
33 32 32 31 33 32 34 34 31 31 31 32 31 30 31 33 34 34 34 36 37 39 42 46 45 45 46 48 48 47 46 45 45 44 44 45 46 47 48 49 49 50 52
32 32 31 32 32 33 32 33 31 31 31 31 31 31 32 32 33 34 33 35 36 37 41 41 41 43 42 43 44 45 50 49 46 46 46 47 47 48 49 51 53 53 51
31 30 30 30 30 30 31 31 32 31 30 30 31 32 32 33 33 33 33 34 34 36 38 38 38 38 40 39 40 40 42 44 49 48 47 47 47 50 50 52 53 53 52
30 27 27 31 30 30 30 31 30 30 30 29 29 30 33 32 32 32 33 33 33 34 35 36 36 36 38 36 37 37 37 40 43 49 47 47 48 49 50 51 52 53 53
26 27 28 31 31 30 30 30 30 30 28 26 27 28 30 31 31 31 31 31 31 32 33 34 34 35 36 34 34 35 35 37 37 42 50 51 51 51 52 51 52 53 53
26 26 27 26 26 27 26 26 27 28 28 27 26 26 27 29 29 30 30 30 29 30 31 32 33 33 34 33 32 32 33 34 35 37 39 44 51 52 53 53 54 53 52
26 26 26 25 25 25 25 24 25 26 25 25 25 24 24 27 26 26 27 28 28 29 30 31 32 32 32 32 31 31 31 32 32 33 35 38 43 52 54 54 54 53 53
26 25 26 25 25 25 24 24 24 24 25 24 25 26 24 24 25 25 25 26 27 27 29 29 30 29 30 30 30 29 29 30 30 31 33 35 40 48 52 55 54 54 54
25 25 25 25 25 24 24 23 23 23 23 24 24 25 24 23 24 24 25 25 25 26 27 27 28 27 28 28 28 28 28 28 28 30 32 34 39 49 53 53 55 55 53
25 24 24 24 23 23 23 22 22 23 22 23 23 24 25 22 24 22 24 24 25 25 25 26 26 25 26 27 27 28 27 27 28 30 31 34 42 46 52 52 55 54 52
25 24 23 23 22 22 22 22 21 22 22 22 22 23 24 22 24 22 23 23 24 24 24 24 25 24 25 26 26 26 27 28 29 30 31 37 41 43 48 52 53 52 50
25 23 23 22 22 23 22 21 21 22 22 22 22 22 23 22 22 21 22 22 22 23 23 23 24 24 24 25 25 25 27 27 28 29 32 36 38 41 43 52 54 53 50
27 25 24 25 25 24 22 22 22 22 22 21 22 22 24 21 21 21 21 21 21 21 22 23 23 23 23 23 24 25 25 27 27 28 31 34 36 37 40 48 54 54 52
Wind_Speed
10 8 10 10 9 9 8 5 5 6 4 2 3 6 8 10 11 11 14 15 17 18 18 18 20 17 17 15 13 14 16 18 25 22 19 17 19 20 20 23 22 20 22
11 8 7 7 6 6 4 2 3 4 0 3 5 7 10 11 13 14 16 16 18 18 18 17 18 17 19 17 16 19 18 16 19 25 21 21 20 15 17 22 21 20 19
14 11 6 3 2 2 2 1 4 3 2 4 7 10 12 13 14 14 16 17 15 15 16 17 20 19 20 17 18 20 20 17 19 20 21 20 21 18 21 21 22 20 20
15 15 15 13 6 4 3 0 6 7 6 5 7 10 11 11 12 13 13 14 16 16 17 19 20 21 22 22 21 22 20 19 18 18 19 17 15 14 14 16 23 20 20
13 14 16 15 14 13 12 11 9 8 6 7 9 11 11 11 12 14 15 16 18 20 19 20 21 23 28 27 22 22 21 20 20 19 19 18 16 16 19 16 19 19 24
13 13 13 14 14 15 12 10 11 10 9 11 13 14 16 13 17 21 20 19 20 20 23 23 23 28 29 32 34 34 29 25 24 23 21 21 20 14 17 18 19 19 15
13 12 12 13 12 13 12 11 12 13 13 14 15 14 15 17 20 23 23 17 18 22 23 23 23 24 28 27 28 32 31 33 32 25 24 25 21 17 18 19 17 17 19
13 13 12 13 13 13 13 12 14 14 15 13 14 13 15 16 20 22 19 18 20 21 22 24 23 24 25 27 25 24 24 24 25 23 26 28 24 22 21 21 20 19 20
12 12 12 12 12 13 12 13 15 14 14 12 12 14 17 18 17 22 21 20 20 23 21 23 23 25 29 30 23 26 25 25 21 28 28 27 27 26 23 14 18 17 14
12 12 12 11 11 12 12 14 13 13 13 13 13 15 17 15 19 22 18 19 19 19 24 23 26 27 32 32 23 23 25 27 22 20 17 26 29 26 27 24 21 19 15
11 11 10 10 12 11 12 12 12 13 12 13 15 15 13 16 20 25 23 20 17 21 20 23 24 31 35 34 31 23 24 23 23 21 19 17 17 18 17 16 19 20 20
9 11 11 11 10 11 10 11 13 13 13 14 13 14 15 17 20 23 30 24 21 17 21 22 26 36 33 24 22 23 25 24 20 18 15 18 19 19 19 18 16 18 18
9 11 11 11 12 11 11 12 11 12 12 13 12 15 16 17 19 25 29 30 29 25 20 27 28 32 32 18 15 12 11 12 14 16 19 20 20 19 16 15 16 20 22
8 10 12 12 13 11 9 9 11 13 13 12 11 13 16 17 19 24 25 25 27 25 25 20 24 29 28 27 16 10 6 10 13 16 16 15 14 14 17 16 16 19 18
8 6 6 8 13 11 8 8 10 10 12 11 11 12 14 18 22 24 24 21 24 24 17 19 27 27 30 29 28 27 20 11 10 10 10 10 10 12 13 14 14 17 18
8 8 4 4 5 7 9 8 4 5 9 13 14 13 13 16 24 28 27 24 28 29 20 24 26 26 27 28 28 28 24 27 11 8 8 8 10 11 8 9 3 6 13
7 10 10 4 5 6 7 7 7 8 5 12 17 17 17 20 25 29 29 24 25 24 26 25 22 26 25 27 26 25 26 26 27 6 10 11 10 12 13 9 6 6 10
13 17 16 10 9 10 8 10 7 8 12 15 16 18 20 22 24 27 27 20 24 26 24 22 22 23 23 26 26 27 27 27 27 24 12 8 10 12 11 10 9 12 16
14 14 13 13 14 13 14 15 14 15 13 12 15 20 20 22 22 24 26 24 21 23 22 22 22 21 22 24 25 25 25 25 24 24 22 19 13 9 10 10 11 18 17
14 19 16 14 14 15 16 16 16 15 16 16 17 20 21 20 24 24 23 21 21 20 21 21 22 22 22 23 25 26 27 28 26 24 23 21 19 16 7 9 13 17 14
12 13 16 15 15 15 15 16 15 15 15 16 16 17 24 18 20 20 21 22 22 21 21 21 21 23 22 24 25 26 26 25 25 25 24 23 21 18 15 7 11 14 14
12 13 14 13 14 15 14 14 15 15 15 15 15 17 20 18 18 19 19 20 20 20 19 20 20 22 21 23 26 26 28 30 28 27 27 25 23 21 14 10 11 15 17
12 13 13 13 13 14 15 15 15 15 15 15 15 16 17 18 17 19 18 19 18 19 20 20 20 22 22 20 23 23 26 29 29 28 27 23 23 23 13 10 9 17 17
11 12 12 11 12 13 14 15 14 15 14 14 15 15 16 17 16 19 18 18 18 18 18 19 20 24 23 22 23 24 24 26 27 26 28 24 23 26 15 10 14 17 18
12 12 11 11 11 12 12 12 12 13 13 14 14 15 14 15 17 17 18 19 18 18 20 19 19 24 25 25 29 31 30 34 31 32 24 26 27 27 24 9 8 15 16
11 13 13 13 12 12 12 11 12 12 12 14 14 13 13 16 17 17 18 19 19 19 21 19 20 24 25 23 29 31 33 33 35 36 26 24 28 27 22 16 10 11 12
Wind_Direction
92 105 113 118 117 113 108 102 106 117 112 58 346 325 318 308 299 283 281 277 273 272 276 278 278 274 274 275 272 270 276 279 283 290 289 301 299 299 302 303 298 298 280
60 79 103 114 114 110 101 103 142 153 213 293 296 305 305 301 292 286 285 279 274 274 265 266 270 277 269 266 270 271 268 271 280 287 289 282 280 306 313 311 292 279 278
44 41 38 62 129 167 193 181 183 211 300 332 323 310 303 294 291 285 280 279 276 271 270 273 279 277 271 267 271 270 274 278 279 278 286 296 295 288 288 293 300 286 275
30 22 10 345 316 282 241 266 36 57 35 354 315 300 299 298 299 292 291 291 289 281 275 271 272 268 264 265 266 261 261 263 262 264 269 270 273 288 294 295 289 289 276
27 18 12 15 26 44 52 62 38 18 353 318 310 317 314 307 302 300 299 297 292 287 280 273 266 260 262 259 257 260 260 262 262 264 268 270 265 266 270 282 285 295 284
31 36 25 16 17 21 24 15 2 349 335 329 321 316 314 310 299 303 304 299 292 287 287 282 272 269 265 259 253 251 248 257 261 267 271 270 265 252 262 262 266 274 296
33 24 17 8 1 356 352 350 349 340 329 319 323 317 311 305 299 304 308 311 302 293 285 282 280 274 270 261 253 248 247 246 244 252 259 261 262 250 254 263 264 270 268
19 7 3 359 347 342 338 338 335 326 317 316 318 318 318 313 318 334 336 321 307 290 283 281 282 282 278 268 253 249 246 244 243 239 243 254 252 251 243 249 261 271 278
9 353 348 338 331 330 328 326 318 313 312 311 313 319 321 318 333 339 339 323 304 297 300 297 289 284 279 279 270 246 243 247 243 235 239 243 246 239 234 243 261 262 267
354 339 332 331 332 324 319 317 311 306 301 313 316 324 327 334 334 334 336 328 309 313 310 306 301 291 285 285 276 267 246 246 246 248 243 243 248 250 245 242 246 249 257
348 343 341 339 328 318 322 321 335 335 337 352 339 337 345 342 333 330 334 328 314 313 310 309 310 307 302 288 274 258 252 250 251 243 245 240 243 244 241 226 221 223 243
349 349 351 342 335 327 336 5 354 357 359 346 345 357 344 338 334 331 331 328 329 323 311 311 320 323 315 318 307 271 256 251 258 252 233 233 235 239 241 237 214 213 224
357 2 5 354 348 355 16 12 10 7 359 352 9 352 338 345 337 339 336 340 340 336 326 316 326 341 346 323 323 307 288 256 246 241 240 239 232 239 244 234 224 222 223
12 14 22 15 0 359 7 15 23 20 5 348 5 351 347 346 345 346 342 339 342 345 338 338 355 2 359 357 326 314 269 238 230 237 240 245 243 239 232 229 228 226 212
343 351 15 27 23 8 12 16 30 29 25 20 6 357 355 351 345 343 339 337 350 339 345 10 12 6 2 356 354 353 337 264 237 236 238 243 232 238 240 248 201 190 190
343 331 309 338 2 352 360 358 19 35 41 33 21 13 9 356 353 356 354 357 8 4 20 24 12 5 5 354 352 348 346 345 287 213 234 227 256 269 270 287 291 193 176
355 345 356 280 319 341 353 350 1 19 22 25 20 18 13 5 3 4 3 6 18 17 27 16 8 4 359 355 350 353 346 344 346 259 221 227 241 262 278 275 277 217 191
25 34 37 34 358 357 346 353 3 14 22 20 18 17 15 13 14 11 10 14 21 22 19 11 3 2 360 355 350 350 348 350 350 350 344 251 243 246 253 252 247 210 177
41 36 36 34 29 34 30 25 32 29 22 15 15 17 14 15 15 18 18 26 18 13 9 8 3 0 357 357 352 351 349 349 348 348 347 345 341 306 251 233 205 162 165
46 40 40 38 32 35 32 28 25 27 23 18 26 22 8 15 21 18 16 15 14 12 6 2 1 360 358 358 355 352 353 352 352 348 343 338 333 338 265 204 161 156 167
50 44 39 42 36 35 35 30 26 29 24 21 19 25 16 22 20 15 13 10 8 6 4 360 0 360 360 359 357 354 353 351 348 345 343 340 336 336 358 141 147 144 140
51 47 46 43 38 35 35 30 27 25 22 18 13 11 19 18 19 15 11 7 2 2 2 359 0 2 359 0 355 353 354 350 348 345 339 334 332 339 355 7 147 139 132
60 56 51 46 46 42 37 31 26 19 20 14 11 10 12 14 11 11 7 2 359 359 359 360 2 1 358 2 359 355 355 348 338 336 333 332 340 348 349 18 97 121 121
79 72 63 47 47 45 40 29 22 18 18 15 12 9 8 10 8 4 1 0 357 357 358 357 357 359 357 359 358 356 351 347 343 343 336 343 351 353 352 20 90 105 105
86 69 61 53 47 52 41 32 20 8 9 8 5 1 0 6 7 3 359 357 355 354 354 356 354 352 354 357 358 356 352 349 351 346 348 351 358 7 4 319 98 107 106
88 81 67 57 53 53 40 29 14 3 7 3 355 356 5 7 359 357 357 355 353 353 350 351 352 354 353 356 356 354 355 355 353 351 356 357 2 358 359 3 164 117 126